User: anonymous   Login
Location: Edmonton
(53.5500°N, 113.5000°W)
Time: 23:53:02
(UTC-06:00)
Language:

CZ-4C R/B - Orbit

View from above orbital plane
View from above orbital plane
View from above satellite
View from above satellite

Ground track
Ground track

The orbit data is extracted from the following two-line orbital elements,

1 36416U 10009D   16148.51923506 -.00000070  00000-0  19391-4 0  9996
2 36416  63.4428 217.9319 0349235 357.4236   2.4992 13.69497373311550
Epoch (UTC): 27 May 2016 12:27:41
Eccentricity: 0.0349235
inclination: 63.4428°
perigee height: 743 km
apogee height: 1259 km
right ascension of ascending node: 217.9319°
argument of perigee: 357.4236°
revolutions per day: 13.69497373
mean anomaly at epoch: 2.4992°
orbit number at epoch: 31155

The dashed part of the orbit path shows where the satellite is in the earth's shadow,  

DLR